Sacramento / Mc Clellan, CA

4:45 PM PDT on March 25, 2017 (GMT -0700)
McClellan

Weather History for KMCC - November, 2013

Change the Weather History Date:

Wednesday, November 13, 2013

  Actual Average (KMHR) Record (KMHR)
Temperature  
Mean Temperature 58 °F -  
Max Temperature 75 °F 59 °F 75 °F (2013)
Min Temperature 42 °F 41 °F 30 °F (2000)
Degree Days  
Heating Degree Days 6    
Growing Degree Days 8 (Base 50)    
Moisture  
Dew Point 38 °F    
Average Humidity 51    
Maximum Humidity 81    
Minimum Humidity 25    
Precipitation  
Precipitation 0.00 in - - ()
Sea Level Pressure  
Sea Level Pressure 30.17 in    
Wind  
Wind Speed 2 mph (North)    
Max Wind Speed 9 mph    
Max Gust Speed -    
Visibility 9 miles    
Events      
Averages and records for this station are not official NWS values.
T = Trace of Precipitation, MM = Missing Value Source: NWS Daily Summary

Daily Weather History Graph

Daily Weather History Graph

Search for Another Location

Airport or City:

Trip Planner

Search our weather history database for the weather conditions in past years. The results will help you decide how hot, cold, wet, or windy it might be!

Date:

Astronomy

Nov. 13, 2013 Rise Set
Actual Time 6:45 AM PST 4:53 PM PST
Civil Twilight 6:17 AM PST 5:21 PM PST
Nautical Twilight 5:45 AM PST 5:53 PM PST
Astronomical Twilight 5:14 AM PST 6:25 PM PST
Moon 2:41 PM PST (11/13) 2:46 AM PST (11/13)
Length of Visible Light 11h 04m
Length of Day
10h 07m
Waxing Gibbous, 85% of the Moon is Illuminated
Nov 13
Waxing Gibbous
Nov 17
Full
Nov 25
Last Quarter
Dec 2
New
Dec 9
First Quarter

Hourly Weather History & Observations

Time (PST) Temp. Windchill Dew Point Humidity Pressure Visibility Wind Dir Wind Speed Gust Speed Precip Events Conditions
12:10 AM 50.0 °F - 37.4 °F 62% 30.25 in 9.0 mi Calm Calm - N/A   Clear
12:30 AM 48.2 °F - 37.4 °F 66% 30.25 in 10.0 mi Calm Calm - N/A   Clear
12:50 AM 48.2 °F - 37.4 °F 66% 30.25 in 9.0 mi Calm Calm - N/A   Clear
1:10 AM 48.2 °F - 37.4 °F 66% 30.24 in 9.0 mi Calm Calm - N/A   Clear
1:30 AM 48.2 °F - 37.4 °F 66% 30.24 in 9.0 mi Calm Calm - N/A   Clear
1:50 AM 48.2 °F - 37.4 °F 66% 30.24 in 9.0 mi Calm Calm - N/A   Clear
2:10 AM 48.2 °F - 39.2 °F 71% 30.24 in 9.0 mi Calm Calm - N/A   Clear
2:30 AM 48.2 °F - 37.4 °F 66% 30.24 in 9.0 mi Calm Calm - N/A   Clear
2:50 AM 46.4 °F - 35.6 °F 66% 30.24 in 9.0 mi Calm Calm - N/A   Clear
3:10 AM 46.4 °F - 37.4 °F 71% 30.24 in 9.0 mi Calm Calm - N/A   Clear
3:30 AM 46.4 °F - 37.4 °F 71% 30.23 in 9.0 mi Calm Calm - N/A   Clear
3:50 AM 46.4 °F 45.2 °F 37.4 °F 71% 30.23 in 8.0 mi NE 3.5 mph - N/A   Clear
4:10 AM 44.6 °F - 37.4 °F 76% 30.22 in 9.0 mi Calm Calm - N/A   Clear
4:30 AM 44.6 °F - 37.4 °F 76% 30.22 in 9.0 mi Calm Calm - N/A   Clear
4:50 AM 44.6 °F - 37.4 °F 76% 30.22 in 10.0 mi Calm Calm - N/A   Clear
5:10 AM 44.6 °F - 35.6 °F 71% 30.22 in 9.0 mi Calm Calm - N/A   Clear
5:30 AM 44.6 °F - 37.4 °F 76% 30.22 in 9.0 mi Calm Calm - N/A   Clear
5:50 AM 42.8 °F - 37.4 °F 81% 30.23 in 8.0 mi Calm Calm - N/A   Clear
6:10 AM 42.8 °F - 37.4 °F 81% 30.22 in 8.0 mi Calm Calm - N/A   Clear
6:30 AM 44.6 °F - 37.4 °F 76% 30.22 in 8.0 mi Calm Calm - N/A   Clear
6:50 AM 44.6 °F - 37.4 °F 76% 30.23 in 7.0 mi Calm Calm - N/A   Clear
7:10 AM 44.6 °F - 37.4 °F 76% 30.23 in 6.0 mi Calm Calm - N/A   Haze
7:30 AM 44.6 °F - 37.4 °F 76% 30.23 in 7.0 mi Calm Calm - N/A   Clear
7:50 AM 46.4 °F - 37.4 °F 71% 30.25 in 8.0 mi Calm Calm - N/A   Clear
8:10 AM 50.0 °F - 39.2 °F 66% 30.25 in 7.0 mi Calm Calm - N/A   Clear
8:30 AM 53.6 °F - 41.0 °F 62% 30.25 in 7.0 mi Calm Calm - N/A   Clear
8:50 AM 55.4 °F - 41.0 °F 58% 30.26 in 7.0 mi Calm Calm - N/A   Clear
9:10 AM 57.2 °F - 41.0 °F 55% 30.25 in 8.0 mi Calm Calm - N/A   Clear
9:30 AM 59.0 °F - 39.2 °F 48% 30.25 in 8.0 mi Calm Calm - N/A   Clear
9:50 AM 60.8 °F - 39.2 °F 45% 30.24 in 8.0 mi Calm Calm - N/A   Clear
10:10 AM 62.6 °F - 37.4 °F 39% 30.24 in 8.0 mi NW 4.6 mph - N/A   Clear
10:30 AM 64.4 °F - 37.4 °F 37% 30.23 in 8.0 mi NW 3.5 mph - N/A   Clear
10:50 AM 66.2 °F - 37.4 °F 35% 30.22 in 9.0 mi NW 3.5 mph - N/A   Clear
11:10 AM 66.2 °F - 37.4 °F 35% 30.21 in 9.0 mi WNW 5.8 mph - N/A   Clear
11:30 AM 68.0 °F - 35.6 °F 30% 30.20 in 8.0 mi WNW 5.8 mph - N/A   Clear
11:50 AM 68.0 °F - 35.6 °F 30% 30.18 in 9.0 mi NW 6.9 mph - N/A   Clear
12:10 PM 71.6 °F - 37.4 °F 29% 30.16 in 10.0 mi NNW 6.9 mph - N/A   Clear
12:30 PM 71.6 °F - 37.4 °F 29% 30.16 in 9.0 mi WNW 6.9 mph - N/A   Clear
12:50 PM 71.6 °F - 37.4 °F 29% 30.15 in 9.0 mi NNW 4.6 mph - N/A   Clear
1:10 PM 71.6 °F - 39.2 °F 31% 30.14 in 10.0 mi WNW 8.1 mph - N/A   Clear
1:30 PM 73.4 °F - 39.2 °F 29% 30.14 in 9.0 mi West 9.2 mph - N/A   Clear
1:50 PM 75.2 °F - 39.2 °F 27% 30.12 in 9.0 mi NW 8.1 mph - N/A   Clear
2:10 PM 75.2 °F - 39.2 °F 27% 30.11 in 9.0 mi NW 6.9 mph - N/A   Clear
2:30 PM 75.2 °F - 39.2 °F 27% 30.11 in 10.0 mi North 4.6 mph - N/A   Clear
2:50 PM 75.2 °F - 37.4 °F 25% 30.11 in 10.0 mi NW 9.2 mph - N/A   Clear
3:10 PM 75.2 °F - 37.4 °F 25% 30.11 in 10.0 mi NW 8.1 mph - N/A   Clear
3:30 PM 75.2 °F - 37.4 °F 25% 30.11 in 10.0 mi NNW 5.8 mph - N/A   Clear
3:50 PM 75.2 °F - 37.4 °F 25% 30.11 in 9.0 mi NNW 4.6 mph - N/A   Clear
4:10 PM 73.4 °F - 37.4 °F 27% 30.11 in 9.0 mi Calm Calm - N/A   Clear
4:30 PM 73.4 °F - 37.4 °F 27% 30.10 in 10.0 mi Calm Calm - N/A   Clear
4:50 PM 69.8 °F - 37.4 °F 31% 30.10 in 9.0 mi Calm Calm - N/A   Clear
5:10 PM 68.0 °F - 37.4 °F 33% 30.10 in 8.0 mi Calm Calm - N/A   Clear
5:30 PM 66.2 °F - 37.4 °F 35% 30.10 in 10.0 mi Calm Calm - N/A   Clear
5:50 PM 66.2 °F - 37.4 °F 35% 30.10 in 10.0 mi Calm Calm - N/A   Clear
6:10 PM 64.4 °F - 37.4 °F 37% 30.10 in 9.0 mi ESE 3.5 mph - N/A   Clear
6:30 PM 62.6 °F - 39.2 °F 42% 30.09 in 10.0 mi ESE 3.5 mph - N/A   Clear
6:50 PM 62.6 °F - 39.2 °F 42% 30.09 in 5.0 mi South 4.6 mph - N/A   Haze
7:10 PM 60.8 °F - 37.4 °F 42% 30.09 in 9.0 mi Calm Calm - N/A   Clear
7:30 PM 62.6 °F - 39.2 °F 42% 30.08 in 10.0 mi Calm Calm - N/A   Clear
7:50 PM 59.0 °F - 41.0 °F 51% 30.08 in 9.0 mi SSE 4.6 mph - N/A   Clear
8:10 PM 59.0 °F - 41.0 °F 51% 30.07 in 10.0 mi SE 5.8 mph - N/A   Clear
8:30 PM 59.0 °F - 41.0 °F 51% 30.07 in 10.0 mi SE 5.8 mph - N/A   Clear
8:50 PM 57.2 °F - 39.2 °F 51% 30.07 in 10.0 mi SE 4.6 mph - N/A   Clear
9:10 PM 57.2 °F - 39.2 °F 51% 30.07 in 10.0 mi ESE 6.9 mph - N/A   Clear
9:30 PM 57.2 °F - 37.4 °F 48% 30.08 in 10.0 mi ESE 5.8 mph - N/A   Clear
9:50 PM 55.4 °F - 37.4 °F 51% 30.07 in 10.0 mi SE 5.8 mph - N/A   Clear
10:10 PM 55.4 °F - 37.4 °F 51% 30.06 in 10.0 mi SE 6.9 mph - N/A   Clear
10:30 PM 55.4 °F - 37.4 °F 51% 30.07 in 10.0 mi ESE 5.8 mph - N/A   Clear
10:50 PM 53.6 °F - 37.4 °F 54% 30.08 in 10.0 mi SSE 8.1 mph - N/A   Clear
11:10 PM 53.6 °F - 37.4 °F 54% 30.07 in 10.0 mi ESE 6.9 mph - N/A   Clear
11:30 PM 53.6 °F - 39.2 °F 58% 30.08 in 10.0 mi SE 5.8 mph - N/A   Clear
11:50 PM 53.6 °F - 37.4 °F 54% 30.09 in 10.0 mi SE 6.9 mph - N/A   Clear